EUTELSAT KA-SAT 9A (37258 NORAD) Tracking and Keplerian Element Data

This shows tracking and keplerian element data for the satellite.

Feedback or suggestion? Click here.




ElementValue
Catalog37258
NameEUTELSAT KA-SAT 9A
Epoch Orbit3900
Epoch Day34.54232282
Epoch Year2025
RAAN288.7188
Inclination0.0789
Eccentricity8.72E-05
Argument of Perigee120.5556
Mean Anonmoly288.8741
Mean Motion1.00270161
Decay Rate6.6E-07
L11 37258U 10069A 25034.54232282 .00000066 00000+0 00000+0 0 9993
L22 37258 0.0789 288.7188 0000872 120.5556 288.8741 1.00270161 39002



Live tracking and technical data element details for EUTELSAT KA-SAT 9A (NORAD 37258). EUTELSAT KA-SAT 9A can be tracked NOW for your location showing map with azimuth and elevation plus other details from your city location.







IsCatalogInMostPopularTable: catalog: 37258, numindb: 384
Update: records affected: 1



GetName: 37258 EUTELSAT KA-SAT 9A

Hit Count: updated at: Fri, 16 May 2025 10:36:09 GMT